FW9676 Weather Reports


Display with metric or nautical units.
time (UTC)temp
F
wind
direction
speed
MPH
gust
MPH
rain 1hr
in
rain 24hr
in
rain mn
in
humidity
%
barometer
mb
20260504044012 60 262 1.0 10.0 0.00 0.00 0.00 82 1015.1
20260504043514 59 261 3.0 10.0 0.00 0.00 0.00 81 1015.1
20260504043030 60 261 4.0 8.0 0.00 0.00 0.00 81 1015.1
20260504042513 60 269 2.0 9.0 0.00 0.00 0.00 82 1014.9
20260504042011 60 262 4.0 9.0 0.00 0.00 0.00 82 1015.0
20260504041531 60 257 3.0 9.0 0.00 0.00 0.00 82 1015.0
20260504041013 60 265 4.0 9.0 0.00 0.00 0.00 83 1014.7
20260504040513 60 266 4.0 9.0 0.00 0.00 0.00 82 1014.9
20260504040031 60 257 2.0 9.0 0.00 0.00 0.00 82 1014.8
20260504035513 60 242 3.0 9.0 0.00 0.00 0.00 82 1014.6
20260504035010 60 259 4.0 9.0 0.00 0.00 0.00 80 1014.4
20260504034534 60 222 4.0 9.0 0.00 0.00 0.00 80 1014.5
20260504034012 60 250 4.0 9.0 0.00 0.00 0.00 80 1014.5
20260504033512 60 270 3.0 8.0 0.00 0.00 0.00 80 1014.6
20260504033044 60 232 2.0 9.0 0.00 0.00 0.00 80 1014.3
20260504032513 60 217 4.0 9.0 0.00 0.00 0.00 79 1014.4
20260504032012 60 277 2.0 10.0 0.00 0.00 0.00 79 1014.2
20260504031533 61 219 3.0 10.0 0.00 0.00 0.00 79 1014.2
20260504031010 61 207 2.0 8.0 0.00 0.00 0.00 79 1014.1
20260504030513 60 259 2.0 9.0 0.00 0.00 0.00 78 1014.0
20260504030031 60 266 2.0 9.0 0.00 0.00 0.00 79 1014.0
20260504025514 60 248 3.0 12.0 0.00 0.00 0.00 79 1013.9
20260504025015 61 277 5.0 12.0 0.00 0.00 0.00 79 1014.0
20260504024541 61 280 4.0 11.0 0.00 0.00 0.00 79 1013.8
20260504024015 61 254 3.0 11.0 0.00 0.00 0.00 79 1013.9
20260504023510 61 243 5.0 11.0 0.00 0.00 0.00 78 1013.9
20260504023030 61 259 3.0 9.0 0.00 0.00 0.00 78 1013.8
20260504022513 61 261 4.0 11.0 0.00 0.00 0.00 78 1013.9
20260504022017 61 240 4.0 11.0 0.00 0.00 0.00 78 1013.9
20260504021530 61 217 4.0 11.0 0.00 0.00 0.00 78 1013.7
20260504021012 61 232 4.0 11.0 0.00 0.00 0.00 78 1013.6
20260504020513 61 244 5.0 14.0 0.00 0.00 0.00 78 1013.7
20260504020030 61 251 5.0 14.0 0.00 0.00 0.00 78 1013.6
20260504015514 61 264 4.0 14.0 0.00 0.00 0.00 77 1013.7
20260504015014 61 258 6.0 14.0 0.00 0.00 0.00 78 1013.7
20260504014530 61 240 5.0 12.0 0.00 0.00 0.00 78 1013.5
20260504014016 61 258 5.0 13.0 0.00 0.00 0.00 78 1013.3
20260504013513 61 208 4.0 13.0 0.00 0.00 0.00 78 1013.6
20260504013030 61 267 5.0 13.0 0.00 0.00 0.00 77 1013.4
20260504012510 62 256 4.0 12.0 0.00 0.00 0.00 77 1013.3
20260504012013 62 252 5.0 12.0 0.00 0.00 0.00 77 1013.4
20260504011530 62 248 4.0 12.0 0.00 0.00 0.00 77 1013.5
20260504011012 62 269 2.0 11.0 0.00 0.00 0.00 78 1013.4
20260504010515 62 211 5.0 11.0 0.00 0.00 0.00 77 1013.3
20260504010030 62 273 4.0 12.0 0.00 0.00 0.00 77 1013.3
20260504005514 62 270 5.0 12.0 0.00 0.00 0.00 77 1013.3
20260504005015 62 217 5.0 10.0 0.00 0.00 0.00 77 1013.2
20260504004541 62 246 3.0 11.0 0.00 0.00 0.00 77 1013.2
20260504004014 62 257 4.0 11.0 0.00 0.00 0.00 77 1013.2
20260504003513 62 275 3.0 12.0 0.00 0.00 0.00 77 1013.3
20260504003030 63 223 5.0 13.0 0.00 0.00 0.00 77 1013.1
20260504002514 63 240 2.0 13.0 0.00 0.00 0.00 77 1013.2
20260504002014 62 227 5.0 13.0 0.00 0.00 0.00 77 1013.2
20260504001529 63 267 5.0 12.0 0.00 0.00 0.00 77 1013.3
20260504001017 63 246 3.0 12.0 0.00 0.00 0.00 77 1013.3
20260504000517 63 258 6.0 11.0 0.00 0.00 0.00 77 1013.2
20260504000030 63 254 2.0 13.0 0.00 0.00 0.00 78 1013.1
20260503235513 63 259 4.0 13.0 0.00 0.00 0.00 78 1013.1
20260503235010 63 269 5.0 13.0 0.00 0.00 0.00 77 1013.1
20260503234530 63 282 4.0 12.0 0.00 0.00 0.00 78 1013.1
20260503234013 63 284 6.0 12.0 0.00 0.00 0.00 77 1013.1
20260503233509 63 255 4.0 12.0 0.00 0.00 0.00 78 1013.1
20260503233032 63 272 7.0 15.0 0.00 0.00 0.00 78 1012.9
20260503232513 63 318 5.0 15.0 0.00 0.00 0.00 78 1013.2
20260503232013 63 257 5.0 14.0 0.00 0.00 0.00 78 1013.5
20260503231532 63 228 4.0 14.0 0.00 0.00 0.00 78 1013.5
20260503231014 63 258 7.0 14.0 0.00 0.00 0.00 78 1013.4
20260503230514 64 253 5.0 11.0 0.00 0.00 0.00 78 1013.4
20260503230030 64 254 4.0 12.0 0.00 0.00 0.00 77 1013.5
20260503225513 63 284 4.0 15.0 0.00 0.00 0.00 77 1013.4
20260503225013 64 219 4.0 15.0 0.00 0.00 0.00 76 1013.4
20260503224531 63 271 7.0 15.0 0.00 0.00 0.00 74 1013.5
20260503224013 64 178 4.0 16.0 0.00 0.00 0.00 75 1013.5
20260503223512 64 267 7.0 16.0 0.00 0.00 0.00 74 1013.6
20260503223030 64 269 7.0 14.0 0.00 0.00 0.00 74 1013.6
20260503222514 64 292 7.0 14.0 0.00 0.00 0.00 73 1013.6
20260503222015 64 228 4.0 14.0 0.00 0.00 0.00 72 1013.6
20260503221536 65 227 5.0 14.0 0.00 0.00 0.00 72 1013.7
20260503221014 65 223 5.0 14.0 0.00 0.00 0.00 72 1013.7
20260503220511 65 266 4.0 11.0 0.00 0.00 0.00 71 1013.7
20260503220034 65 229 5.0 13.0 0.00 0.00 0.00 71 1013.7
20260503215513 64 269 4.0 14.0 0.00 0.00 0.00 71 1013.8
20260503215014 64 265 5.0 14.0 0.00 0.00 0.00 70 1013.9
20260503214529 64 226 6.0 14.0 0.00 0.00 0.00 70 1013.9
20260503214014 64 257 5.0 12.0 0.00 0.00 0.00 70 1013.8
20260503213517 65 260 4.0 12.0 0.00 0.00 0.00 69 1013.9
20260503213032 65 235 3.0 13.0 0.00 0.00 0.00 69 1014.0
20260503212513 65 223 5.0 13.0 0.00 0.00 0.00 69 1014.0
20260503212011 65 265 4.0 13.0 0.00 0.00 0.00 68 1014.1
20260503211536 65 244 5.0 13.0 0.00 0.00 0.00 67 1014.0
20260503211011 66 305 4.0 12.0 0.00 0.00 0.00 68 1014.0
20260503210512 66 238 5.0 13.0 0.00 0.00 0.00 68 1014.1
20260503210032 65 248 4.0 13.0 0.00 0.00 0.00 69 1014.0
20260503205522 65 229 5.0 10.0 0.00 0.00 0.00 69 1014.0
20260503205014 65 238 4.0 14.0 0.00 0.00 0.00 70 1014.1
20260503204531 65 248 6.0 14.0 0.00 0.00 0.00 70 1014.1
20260503204013 65 218 4.0 13.0 0.00 0.00 0.00 69 1014.0
20260503203513 66 259 5.0 12.0 0.00 0.00 0.00 69 1014.1
20260503203032 65 266 5.0 14.0 0.00 0.00 0.00 69 1014.1
20260503202511 66 265 5.0 14.0 0.00 0.00 0.00 68 1014.1
20260503202012 66 184 4.0 14.0 0.00 0.00 0.00 69 1014.1
20260503201530 65 226 3.0 14.0 0.00 0.00 0.00 70 1014.1
20260503201013 65 264 5.0 13.0 0.00 0.00 0.00 68 1014.2
20260503200513 65 5 5.0 12.0 0.00 0.00 0.00 69 1014.1
20260503200030 65 271 3.0 12.0 0.00 0.00 0.00 69 1014.2
20260503195514 65 205 5.0 12.0 0.00 0.00 0.00 68 1014.2
20260503195014 65 235 4.0 10.0 0.00 0.00 0.00 66 1014.3
20260503194535 65 261 3.0 10.0 0.00 0.00 0.00 68 1014.3
20260503194014 65 273 5.0 11.0 0.00 0.00 0.00 68 1014.4
20260503193511 64 225 2.0 11.0 0.00 0.00 0.00 69 1014.4
20260503193039 64 276 5.0 11.0 0.00 0.00 0.00 69 1014.5
20260503192514 64 273 4.0 10.0 0.00 0.00 0.00 69 1014.5
20260503192015 65 264 4.0 10.0 0.00 0.00 0.00 70 1014.5
20260503191530 65 281 4.0 11.0 0.00 0.00 0.00 70 1014.5
20260503191016 65 219 5.0 11.0 0.00 0.00 0.00 69 1014.5
20260503190515 65 213 3.0 10.0 0.00 0.00 0.00 69 1014.6
20260503190039 65 248 2.0 10.0 0.00 0.00 0.00 70 1014.7
20260503185511 65 261 2.0 11.0 0.00 0.00 0.00 70 1014.6
20260503185010 65 281 4.0 14.0 0.00 0.00 0.00 69 1014.6
20260503184529 65 252 4.0 14.0 0.00 0.00 0.00 68 1014.7
20260503184011 65 173 3.0 10.0 0.00 0.00 0.00 69 1014.8
20260503183513 64 275 4.0 12.0 0.00 0.00 0.00 69 1014.8
20260503183031 65 198 5.0 12.0 0.00 0.00 0.00 69 1014.8
20260503182518 65 252 3.0 10.0 0.00 0.00 0.00 72 1014.9
20260503182017 64 244 3.0 8.0 0.00 0.00 0.00 71 1014.9
20260503181533 64 247 3.0 8.0 0.00 0.00 0.00 72 1014.9
20260503181014 63 199 3.0 7.0 0.00 0.00 0.00 73 1014.9
20260503180514 63 216 4.0 8.0 0.00 0.00 0.00 73 1014.9
20260503180030 63 217 3.0 10.0 0.00 0.00 0.00 74 1014.9
20260503175513 62 271 3.0 10.0 0.00 0.00 0.00 75 1015.0
20260503175013 62 245 4.0 10.0 0.00 0.00 0.00 75 1015.1
20260503174541 62 290 5.0 10.0 0.00 0.00 0.00 75 1014.9
20260503174013 62 269 3.0 8.0 0.00 0.00 0.00 76 1014.9
20260503173511 62 227 3.0 11.0 0.00 0.00 0.00 77 1014.9
20260503173028 62 217 3.0 11.0 0.00 0.00 0.00 78 1014.9
20260503172514 61 249 4.0 9.0 0.00 0.00 0.00 77 1014.9
20260503172014 61 223 3.0 10.0 0.00 0.00 0.00 77 1014.9
20260503171530 62 211 4.0 11.0 0.00 0.00 0.00 78 1014.7
20260503171013 62 265 3.0 11.0 0.00 0.00 0.00 78 1014.7
20260503170514 62 248 6.0 11.0 0.00 0.00 0.00 77 1014.6
20260503151014 60 247 1.0 4.0 0.00 0.00 0.00 82 1014.0
20260503150514 60 250 1.0 4.0 0.00 0.00 0.00 82 1013.9
20260503131013 59 259 0.0 4.0 0.00 0.00 0.00 86 1013.0
20260503130513 59 261 0.0 4.0 0.00 0.00 0.00 86 1013.0
20260503110515 59 212 0.0 3.0 0.00 0.00 0.00 86 1012.7
20260503090513 60 0 0.0 2.0 0.00 0.00 0.00 84 1013.3
20260503081543 60 165 2.0 6.0 0.00 0.00 0.00 84 1013.6
20260503081014 60 188 2.0 4.0 0.00 0.00 0.00 84 1013.6
20260503080515 60 232 1.0 5.0 0.00 0.00 0.00 84 1013.6
20260503072514 59 220 2.0 5.0 0.00 0.00 0.00 86 1013.4
20260503072013 59 217 1.0 4.0 0.00 0.00 0.00 86 1013.3
20260503071539 59 238 1.0 4.0 0.00 0.00 0.00 86 1013.3
20260503071013 59 266 2.0 4.0 0.00 0.00 0.00 86 1013.3
20260503070514 59 234 0.0 4.0 0.00 0.00 0.00 86 1013.3
20260503055014 59 267 1.0 7.0 0.00 0.00 0.00 90 1013.1
20260503054535 59 229 2.0 7.0 0.00 0.00 0.00 90 1013.1
20260503054015 59 279 1.0 7.0 0.00 0.00 0.00 90 1013.0
20260503053512 59 244 2.0 7.0 0.00 0.00 0.00 90 1013.0
20260503053032 59 263 2.0 6.0 0.00 0.00 0.00 90 1013.2
20260503052514 59 257 2.0 4.0 0.00 0.00 0.00 90 1013.3
20260503052018 59 252 1.0 7.0 0.00 0.00 0.00 90 1013.2
20260503051530 59 244 3.0 8.0 0.00 0.00 0.00 90 1013.3
20260503051012 59 265 4.0 8.0 0.00 0.00 0.00 90 1013.3
20260503050513 59 271 2.0 9.0 0.00 0.00 0.00 90 1013.3
20260503050032 59 269 5.0 9.0 0.00 0.00 0.00 90 1013.3
20260503045514 59 265 2.0 7.0 0.00 0.00 0.00 90 1013.3
20260503045011 59 270 2.0 6.0 0.00 0.00 0.00 90 1013.3
20260503044529 59 238 2.0 8.0 0.00 0.00 0.00 90 1013.3